• In Portugal
  • List of Countries
  • For 7 days
  • Water Temperature
  • Satellite Maps
  • Weather Map
  • Weather Widgets
  • user-avatar
    Login

    Hourly Weather Parkoszow

    Today, 19 July, Thursday

    Time Temperature Precipitation Wind Pressure Humidity
    00:00 +18°C° 0 mm 2 mps 747 mmHg 91%
    01:00 +18°C° 0 mm 2 mps 747 mmHg 93%
    02:00 +17°C° 0 mm 3 mps 747 mmHg 94%
    03:00 +17°C° 0 mm 3 mps 747 mmHg 94%
    04:00 +17°C° 0 mm 3 mps 746 mmHg 95%
    05:00 +17°C° 0 mm 4 mps 747 mmHg 92%
    06:00 +18°C° 0 mm 4 mps 747 mmHg 90%
    07:00 +19°C° 0 mm 5 mps 747 mmHg 87%
    08:00 +19°C° 0.2 mm 5 mps 747 mmHg 85%
    09:00 +20°C° 0.2 mm 5 mps 747 mmHg 83%
    10:00 +20°C° 0.2 mm 5 mps 747 mmHg 81%
    11:00 +20°C° 0.6 mm 5 mps 747 mmHg 84%
    12:00 +19°C° 0.6 mm 5 mps 747 mmHg 88%
    13:00 +19°C° 0.6 mm 5 mps 747 mmHg 91%
    14:00 +19°C° 0.3 mm 5 mps 747 mmHg 89%
    15:00 +20°C° 0.3 mm 4 mps 747 mmHg 87%
    16:00 +20°C° 0.3 mm 4 mps 747 mmHg 85%
    17:00 +20°C° 0.1 mm 4 mps 747 mmHg 84%
    18:00 +21°C° 0.1 mm 3 mps 747 mmHg 84%
    19:00 +21°C° 0.1 mm 3 mps 747 mmHg 83%
    20:00 +20°C° 0 mm 2 mps 747 mmHg 86%
    21:00 +19°C° 0 mm 2 mps 747 mmHg 89%
    22:00 +18°C° 0 mm 2 mps 748 mmHg 92%
    23:00 +17°C° 0 mm 2 mps 748 mmHg 92%

    Tomorrow, 20 July, Friday

    Time Temperature Precipitation Wind Pressure Humidity
    00:00 +17°C° 0 mm 2 mps 748 mmHg 93%
    01:00 +16°C° 0 mm 2 mps 748 mmHg 93%
    02:00 +16°C° 0 mm 2 mps 748 mmHg 93%
    03:00 +15°C° 0 mm 2 mps 748 mmHg 93%
    04:00 +14°C° 0 mm 2 mps 748 mmHg 93%
    05:00 +16°C° 0 mm 2 mps 748 mmHg 87%
    06:00 +17°C° 0 mm 2 mps 748 mmHg 81%
    07:00 +18°C° 0 mm 2 mps 748 mmHg 75%
    08:00 +20°C° 0 mm 2 mps 748 mmHg 65%
    09:00 +22°C° 0 mm 3 mps 748 mmHg 56%
    10:00 +25°C° 0 mm 3 mps 748 mmHg 46%
    11:00 +25°C° 0 mm 3 mps 748 mmHg 43%
    12:00 +26°C° 0 mm 3 mps 747 mmHg 40%
    13:00 +27°C° 0 mm 3 mps 747 mmHg 38%
    14:00 +27°C° 0 mm 3 mps 747 mmHg 38%
    15:00 +27°C° 0 mm 3 mps 747 mmHg 38%
    16:00 +27°C° 0 mm 3 mps 746 mmHg 38%
    17:00 +26°C° 0 mm 2 mps 746 mmHg 44%
    18:00 +25°C° 0 mm 2 mps 746 mmHg 50%
    19:00 +24°C° 0 mm 1 mps 746 mmHg 56%
    20:00 +22°C° 0 mm 1 mps 746 mmHg 58%
    21:00 +21°C° 0 mm 1 mps 746 mmHg 61%
    22:00 +18°C° 0 mm 0 mps 746 mmHg 64%
    23:00 +17°C° 0 mm 0 mps 746 mmHg 66%

    Day after tomorrow, 21 July, Saturday

    Time Temperature Precipitation Wind Pressure Humidity
    00:00 +18°C° 0 mm 1 mps 746 mmHg 69%
    01:00 +18°C° 0 mm 1 mps 746 mmHg 72%
    02:00 +16°C° 0 mm 1 mps 746 mmHg 73%
    03:00 +16°C° 0 mm 1 mps 746 mmHg 74%
    04:00 +16°C° 0 mm 1 mps 746 mmHg 75%
    05:00 +18°C° 0 mm 1 mps 746 mmHg 71%
    06:00 +20°C° 0 mm 1 mps 746 mmHg 67%
    07:00 +21°C° 0 mm 1 mps 746 mmHg 63%
    08:00 +23°C° 0 mm 1 mps 746 mmHg 57%
    09:00 +25°C° 0 mm 1 mps 746 mmHg 51%
    10:00 +27°C° 0 mm 1 mps 746 mmHg 46%
    11:00 +27°C° 0 mm 1 mps 745 mmHg 43%
    12:00 +28°C° 0 mm 1 mps 745 mmHg 40%
    13:00 +29°C° 0 mm 1 mps 745 mmHg 37%
    14:00 +29°C° 0 mm 1 mps 745 mmHg 37%
    15:00 +29°C° 0 mm 1 mps 744 mmHg 36%
    16:00 +29°C° 0 mm 1 mps 744 mmHg 36%
    17:00 +27°C° 0 mm 1 mps 744 mmHg 42%
    18:00 +26°C° 0 mm 1 mps 744 mmHg 48%
    19:00 +25°C° 0 mm 1 mps 744 mmHg 53%
    20:00 +23°C° 0 mm 1 mps 744 mmHg 57%
    21:00 +21°C° 0 mm 2 mps 744 mmHg 60%
    22:00 +20°C° 0 mm 2 mps 744 mmHg 64%
    23:00 +20°C° 0 mm 1 mps 744 mmHg 66%

    22 July, Sunday

    Time Temperature Precipitation Wind Pressure Humidity
    00:00 +19°C° 0 mm 1 mps 744 mmHg 69%
    01:00 +19°C° 0 mm 1 mps 744 mmHg 72%
    02:00 +19°C° 0 mm 1 mps 744 mmHg 73%
    03:00 +18°C° 0 mm 1 mps 744 mmHg 74%
    04:00 +18°C° 0 mm 1 mps 744 mmHg 76%
    05:00 +19°C° 0 mm 1 mps 744 mmHg 72%
    06:00 +21°C° 0 mm 1 mps 744 mmHg 68%
    07:00 +22°C° 0 mm 1 mps 744 mmHg 64%
    08:00 +24°C° 0 mm 1 mps 744 mmHg 59%
    09:00 +25°C° 0 mm 2 mps 744 mmHg 54%
    10:00 +27°C° 0 mm 2 mps 744 mmHg 49%
    11:00 +27°C° 0.1 mm 2 mps 744 mmHg 46%
    12:00 +28°C° 0.1 mm 2 mps 744 mmHg 44%
    13:00 +28°C° 0.1 mm 2 mps 744 mmHg 41%
    14:00 +28°C° 0 mm 3 mps 744 mmHg 43%
    15:00 +28°C° 0 mm 3 mps 744 mmHg 44%
    16:00 +27°C° 0 mm 3 mps 744 mmHg 46%
    17:00 +26°C° 0 mm 3 mps 744 mmHg 53%
    18:00 +24°C° 0 mm 3 mps 744 mmHg 59%
    19:00 +23°C° 0 mm 2 mps 744 mmHg 65%
    20:00 +21°C° 0.1 mm 2 mps 745 mmHg 69%
    21:00 +20°C° 0.1 mm 2 mps 745 mmHg 72%
    22:00 +20°C° 0.1 mm 2 mps 745 mmHg 75%
    23:00 +19°C° 0.1 mm 2 mps 745 mmHg 77%

    23 July, Monday

    Time Temperature Precipitation Wind Pressure Humidity
    00:00 +19°C° 0.1 mm 2 mps 746 mmHg 79%
    01:00 +19°C° 0.1 mm 2 mps 746 mmHg 81%
    02:00 +18°C° 0.2 mm 2 mps 746 mmHg 84%
    03:00 +17°C° 0.2 mm 2 mps 746 mmHg 87%
    04:00 +17°C° 0.2 mm 2 mps 746 mmHg 90%
    05:00 +18°C° 0.2 mm 2 mps 746 mmHg 88%
    06:00 +18°C° 0.2 mm 2 mps 747 mmHg 85%
    07:00 +19°C° 0.2 mm 3 mps 747 mmHg 83%
    08:00 +21°C° 0.6 mm 3 mps 747 mmHg 77%
    09:00 +22°C° 0.6 mm 3 mps 747 mmHg 70%
    10:00 +23°C° 0.6 mm 4 mps 747 mmHg 64%
    11:00 +25°C° 0.2 mm 4 mps 747 mmHg 59%
    12:00 +26°C° 0.2 mm 4 mps 747 mmHg 54%
    13:00 +27°C° 0.2 mm 4 mps 747 mmHg 49%
    14:00 +27°C° 0 mm 4 mps 747 mmHg 48%
    15:00 +27°C° 0 mm 3 mps 747 mmHg 47%
    16:00 +27°C° 0 mm 3 mps 747 mmHg 46%
    17:00 +26°C° 0 mm 3 mps 747 mmHg 50%
    18:00 +25°C° 0 mm 2 mps 747 mmHg 54%
    19:00 +24°C° 0 mm 2 mps 747 mmHg 59%
    20:00 +23°C° 0 mm 1 mps 747 mmHg 63%
    21:00 +21°C° 0 mm 1 mps 748 mmHg 68%
    22:00 +20°C° 0 mm 1 mps 748 mmHg 72%
    23:00 +19°C° 0 mm 1 mps 748 mmHg 75%

    24 July, Tuesday

    Time Temperature Precipitation Wind Pressure Humidity
    00:00 +18°C° 0 mm 1 mps 748 mmHg 79%
    01:00 +16°C° 0 mm 0 mps 748 mmHg 82%
    02:00 +16°C° 0 mm 0 mps 748 mmHg 83%
    03:00 +15°C° 0 mm 0 mps 748 mmHg 84%
    04:00 +15°C° 0 mm 0 mps 748 mmHg 86%
    05:00 +17°C° 0 mm 0 mps 748 mmHg 79%
    06:00 +19°C° 0 mm 0 mps 748 mmHg 73%
    07:00 +20°C° 0 mm 0 mps 749 mmHg 66%
    08:00 +24°C° 0 mm 1 mps 749 mmHg 62%
    09:00 +26°C° 0 mm 1 mps 749 mmHg 57%
    10:00 +27°C° 0 mm 1 mps 749 mmHg 52%
    11:00 +27°C° 0 mm 1 mps 748 mmHg 51%
    12:00 +28°C° 0 mm 1 mps 748 mmHg 50%
    13:00 +28°C° 0 mm 2 mps 748 mmHg 50%
    14:00 +28°C° 0 mm 2 mps 748 mmHg 49%
    15:00 +29°C° 0 mm 2 mps 748 mmHg 49%
    16:00 +29°C° 0 mm 2 mps 747 mmHg 49%
    17:00 +28°C° 0 mm 1 mps 747 mmHg 54%
    18:00 +27°C° 0 mm 1 mps 747 mmHg 59%
    19:00 +26°C° 0 mm 1 mps 748 mmHg 64%
    20:00 +24°C° 0 mm 1 mps 748 mmHg 68%
    21:00 +23°C° 0 mm 1 mps 748 mmHg 72%
    22:00 +22°C° 0 mm 1 mps 748 mmHg 76%
    23:00 +21°C° 0 mm 1 mps 749 mmHg 78%
    Show more